Theta_e
304 303 305 304 304 304 303 303 303 301 300 301 303 303 300 298 297 298 300 304 306 303 307 307 312 314 315 316 316 316 316 312 315 315 308 319 319 318 315 313 313 312 311 310 310 313 309
303 303 303 303 302 302 302 301 300 300 302 300 300 299 300 298 298 298 299 303 305 304 307 308 313 315 315 317 315 314 315 315 313 312 307 317 319 318 317 313 312 311 310 309 309 307 307
302 302 301 301 301 300 301 301 300 301 301 299 299 298 299 300 300 298 299 305 304 304 306 306 313 315 314 314 316 316 315 317 316 309 309 319 319 318 317 312 311 310 310 309 308 308 307
300 300 300 300 300 301 300 300 300 301 300 299 298 301 303 302 300 298 303 304 302 303 305 309 313 314 314 315 315 315 315 318 318 309 309 318 317 318 315 313 312 311 310 312 310 308 307
299 299 299 299 299 300 299 299 298 298 298 299 302 304 302 299 299 299 304 306 309 309 309 312 314 314 315 316 315 314 315 319 315 312 316 318 317 316 313 311 311 312 312 313 312 310 307
298 298 298 299 298 299 299 298 298 298 298 302 303 301 298 299 299 303 310 313 314 313 314 314 314 314 314 314 313 315 317 317 317 314 315 315 316 311 312 311 314 313 313 312 313 311 309
297 297 297 298 298 298 298 297 298 298 298 301 302 298 298 299 299 309 312 313 314 315 315 313 314 314 313 313 311 315 317 317 316 315 315 315 314 314 312 311 311 312 312 312 311 311 310
296 296 297 298 298 298 298 297 297 297 298 300 301 299 298 298 303 310 311 312 312 312 312 310 313 315 315 314 314 315 317 316 316 315 314 314 315 313 312 312 313 313 311 311 309 312 311
296 296 297 297 297 297 297 297 297 297 297 299 301 300 299 300 306 310 310 310 311 310 310 311 313 314 315 314 313 315 316 316 314 314 314 311 312 313 312 312 313 312 311 309 311 308 308
296 296 296 297 297 297 297 296 296 296 296 297 301 302 298 299 307 307 309 308 309 310 310 313 314 314 315 314 313 312 315 315 312 314 313 312 311 312 313 312 310 311 310 311 308 309 310
295 295 296 296 297 297 296 296 296 296 296 296 299 302 302 300 304 309 308 308 310 311 312 314 314 314 315 313 313 314 314 315 312 311 313 313 311 311 311 311 311 312 311 311 308 309 309
295 295 295 296 296 296 296 296 296 296 296 296 296 301 303 303 306 305 303 310 311 313 312 313 312 313 313 313 312 315 315 314 312 312 311 309 311 310 310 311 311 312 312 311 310 310 313
296 295 295 296 296 296 296 296 296 296 296 296 296 299 303 304 305 302 308 311 308 311 309 312 313 313 312 312 313 313 315 314 313 314 311 311 311 309 309 309 310 311 312 316 316 315 314
295 295 295 296 295 295 296 296 296 295 295 295 295 298 302 304 304 305 310 309 311 310 311 311 311 311 313 311 311 313 313 314 313 312 313 312 313 311 308 309 311 312 312 314 314 313 311
295 295 295 295 295 295 295 295 295 295 295 295 295 300 304 304 305 307 312 309 308 310 310 310 309 310 311 311 311 312 313 312 311 313 314 315 313 311 309 310 310 312 314 311 311 309 310
294 294 294 294 294 294 295 295 295 295 294 295 295 300 305 308 307 307 307 308 307 308 308 308 310 308 309 312 311 312 312 310 312 312 312 312 315 311 311 310 310 311 310 313 313 316 313
294 294 294 294 294 294 294 294 294 294 294 294 296 306 308 307 306 310 307 305 306 307 306 307 308 307 307 308 309 308 309 308 307 309 308 307 311 312 311 311 311 311 312 312 312 311 312
295 293 293 294 294 294 293 293 293 294 294 294 296 302 306 305 307 307 305 306 306 306 306 306 305 305 304 305 304 307 307 307 306 306 307 307 307 312 313 309 306 311 311 313 314 313 312
293 293 293 294 293 294 293 293 293 293 292 292 296 299 303 306 306 303 302 305 305 304 304 304 304 304 303 305 304 305 306 304 304 306 307 304 308 310 311 310 308 308 310 311 312 311 312
293 294 294 294 293 294 293 292 292 292 292 292 295 297 302 305 305 303 301 300 300 303 303 303 302 301 302 303 302 301 305 304 303 303 304 303 304 306 308 308 307 308 308 308 309 314 312
294 293 293 294 293 294 293 292 291 291 292 292 297 295 295 293 296 296 296 299 299 298 302 300 299 300 300 298 299 299 298 297 301 301 301 302 303 301 304 305 306 307 308 307 308 309 312
292 291 292 292 292 292 291 292 291 291 291 292 292 291 291 293 294 294 294 294 295 296 297 297 297 295 294 295 296 295 294 292 295 298 300 300 297 300 297 302 303 306 306 306 306 307 308
292 291 291 292 292 290 290 291 290 290 291 291 290 291 292 293 293 293 293 294 295 294 294 294 293 292 292 293 293 293 293 293 292 294 290 292 295 287 287 296 300 302 302 303 305 305 307
291 291 293 293 291 289 289 291 291 290 291 290 289 291 292 293 291 292 292 292 292 292 292 292 291 291 291 291 291 291 291 291 291 291 293 287 286 287 288 289 292 295 288 289 298 295 294
290 292 292 291 289 288 291 291 290 290 291 290 291 290 291 291 291 291 290 290 290 290 289 290 291 291 291 290 291 291 291 290 290 290 291 293 286 287 289 292 289 294 285 287 291 296 286
292 291 291 288 290 291 291 289 290 291 291 290 291 290 289 291 290 290 289 289 289 288 287 289 289 290 289 291 291 286 288 290 288 293 292 292 294 295 282 289 290 285 280 280 281 295 283
290 291 288 290 290 290 289 290 291 291 290 290 290 291 289 290 290 289 289 289 288 288 287 288 288 288 289 290 290 286 285 289 287 288 291 294 295 296 294 295 290 273 272 277 294 290 281
291 290 288 289 290 290 290 290 290 290 290 289 290 290 290 289 289 288 288 288 288 287 287 287 287 288 288 289 290 288 284 288 286 284 284 288 292 292 289 295 295 272 276 284 276 278 281
292 289 288 289 290 291 291 290 290 289 289 290 290 290 289 288 287 287 287 287 287 287 287 287 287 286 287 288 286 285 285 283 290 289 287 291 282 287 287 287 273 273 273 275 275 275 278
Wind_Speed
17 18 18 18 19 19 19 20 20 20 19 20 21 21 20 17 15 12 11 9 7 5 4 3 2 2 3 3 4 5 7 5 13 18 27 23 17 18 4 9 16 5 5 7 8 12 14
17 18 18 18 19 20 21 22 22 21 20 20 20 21 19 17 15 12 10 9 6 3 6 4 2 2 3 3 3 3 11 12 14 23 26 25 10 16 11 1 3 9 11 13 7 7 7
16 17 18 19 20 21 22 23 24 22 21 20 20 21 21 19 15 12 9 6 5 3 4 4 4 2 5 10 7 6 6 7 7 23 26 24 16 10 15 5 11 18 7 7 4 6 4
15 17 18 19 20 21 22 24 25 24 23 21 20 20 20 19 14 10 6 4 2 0 2 4 4 4 6 4 8 13 7 5 6 17 21 19 13 13 4 17 6 4 5 4 5 11 8
15 16 18 20 21 22 22 23 24 25 23 21 20 21 21 19 12 5 4 5 5 5 4 7 4 3 7 3 4 3 8 7 13 12 16 12 7 7 8 6 3 2 3 3 3 13 6
15 16 18 20 20 21 22 23 23 24 22 21 22 23 21 17 7 5 7 10 10 9 7 5 1 3 6 1 3 4 8 8 9 13 9 8 7 4 3 4 8 6 5 5 7 11 6
15 17 19 19 20 21 21 22 22 23 22 21 22 21 20 14 5 7 7 5 2 2 5 7 3 5 2 4 3 9 9 12 11 10 5 6 4 7 7 6 5 6 5 8 0 9 6
14 16 18 19 20 20 21 21 21 21 21 20 20 19 17 10 7 8 8 5 5 3 9 14 19 12 6 4 2 7 15 9 11 8 4 1 9 6 8 6 8 9 6 2 3 9 6
15 16 17 18 19 20 20 20 21 20 20 19 18 16 12 9 6 3 6 3 5 7 4 9 12 19 6 5 4 15 18 8 5 6 10 7 6 12 10 9 14 14 13 6 4 3 1
15 16 17 18 18 19 20 20 21 21 19 18 15 14 10 6 2 5 2 1 3 6 3 2 3 3 14 4 5 12 21 9 5 12 7 11 13 15 18 14 12 14 7 7 12 10 6
15 15 17 17 18 19 19 19 20 20 20 18 14 11 10 8 2 2 4 3 1 3 4 4 3 4 4 6 3 6 14 19 4 6 7 7 11 10 17 21 13 11 8 8 10 10 4
14 15 17 17 17 18 19 19 19 20 20 18 14 10 8 5 1 4 5 1 0 1 4 2 4 4 3 6 3 3 8 11 4 4 7 8 17 8 11 8 16 5 4 4 4 3 5
14 15 17 17 18 18 19 19 19 19 20 18 15 10 7 6 3 4 3 1 3 2 2 4 2 5 7 5 5 5 5 7 5 3 6 4 13 5 5 6 6 5 6 3 4 5 7
15 16 17 18 18 19 19 19 19 19 19 18 15 9 8 5 3 1 4 2 2 3 3 1 2 3 5 5 7 8 3 4 9 8 3 8 9 14 9 12 11 13 13 6 9 9 5
14 15 17 18 20 20 21 20 20 19 19 18 13 9 6 1 1 4 2 1 5 0 2 3 6 4 4 8 2 5 4 4 6 14 6 4 7 5 14 15 16 7 14 15 5 4 2
15 16 16 18 20 21 22 22 20 19 18 17 12 7 8 3 4 5 2 4 3 1 2 3 3 3 3 2 1 1 3 3 4 9 15 5 6 5 7 18 17 14 8 9 10 9 15
14 16 17 18 20 20 21 22 21 19 17 13 8 4 3 4 5 4 3 5 2 5 3 1 2 3 2 2 6 5 6 3 0 1 6 3 6 3 4 11 22 14 12 8 8 9 10
14 15 16 18 20 21 22 21 21 20 17 12 3 1 2 4 2 4 3 4 4 1 1 4 3 5 6 4 4 5 7 6 2 2 4 3 3 4 6 3 3 21 19 20 8 15 13
13 14 15 17 20 22 22 23 20 18 18 14 6 5 3 6 2 2 6 3 4 4 2 2 3 1 4 1 3 2 3 2 3 2 1 2 2 4 4 0 0 2 7 11 18 0 16
10 11 14 17 19 21 23 22 20 18 15 10 4 3 3 8 7 3 3 4 2 1 2 3 3 4 3 3 3 4 2 3 5 3 0 1 3 5 8 9 1 10 8 4 10 6 14
9 12 13 16 19 19 23 24 20 17 14 9 1 2 1 2 2 3 3 3 3 3 3 4 2 3 4 4 3 4 3 5 1 3 1 1 6 4 10 11 8 11 12 11 11 11 8
10 12 13 13 17 18 19 23 22 18 14 6 7 6 7 6 7 2 2 3 2 3 3 2 2 5 3 2 1 4 2 1 5 1 3 4 4 3 6 10 11 12 9 10 13 13 13
9 10 11 12 14 17 18 21 21 22 14 6 8 4 4 7 3 0 2 2 3 3 3 2 4 3 3 3 8 8 10 13 9 2 3 4 3 2 5 5 4 6 14 16 9 6 4
8 7 10 11 14 17 18 19 20 18 15 9 9 6 3 3 2 1 4 1 2 2 4 9 13 2 2 14 21 18 18 22 19 17 18 5 5 3 5 3 4 6 2 2 5 1 4
6 5 8 11 15 14 16 17 17 16 12 10 8 3 0 3 4 4 6 3 8 8 4 5 11 1 8 8 3 4 3 3 8 14 14 17 5 3 3 6 6 8 3 3 1 2 4
4 7 10 13 13 13 13 16 14 16 14 11 6 6 1 3 3 4 4 5 2 3 4 2 7 8 5 1 3 3 4 4 4 5 5 11 12 7 2 4 8 5 1 8 1 4 5
5 7 10 9 11 12 13 15 14 16 15 13 8 5 4 4 6 4 2 2 4 1 2 4 7 5 3 2 3 2 4 4 4 3 2 1 4 15 11 7 5 3 9 10 4 3 8
5 8 8 8 10 14 15 17 17 16 16 12 10 13 6 4 12 11 7 4 4 3 1 5 4 3 2 2 2 3 1 3 2 4 5 6 4 3 3 6 9 4 5 3 3 9 3
7 8 7 5 8 11 14 17 19 19 16 12 12 10 8 8 11 18 18 15 15 12 5 2 1 2 3 2 3 3 2 3 5 3 2 3 2 2 3 2 2 3 4 5 9 8 2
Wind_Direction
22 21 20 17 12 7 5 1 357 356 352 350 346 345 343 342 343 335 320 312 297 276 226 217 273 262 209 210 253 325 318 303 223 204 186 187 198 197 201 187 181 113 140 107 114 112 108
22 17 18 17 13 8 7 2 1 357 352 349 346 342 341 346 343 341 327 312 284 248 193 215 198 250 179 233 111 307 316 301 212 197 189 192 199 195 226 116 165 139 126 124 123 114 112
21 16 14 16 11 10 6 4 3 0 356 351 346 348 350 344 346 337 329 318 291 198 198 199 180 189 250 233 191 277 327 309 250 198 189 193 196 248 226 112 122 123 109 116 131 154 131
19 16 13 13 10 6 4 2 3 360 357 355 357 353 349 342 344 344 353 2 353 333 193 160 172 191 259 294 273 258 299 266 244 197 196 193 213 243 223 124 103 90 113 129 176 174 179
18 15 9 8 5 2 1 1 2 3 3 3 359 353 347 343 343 10 30 39 52 79 125 134 157 207 287 325 287 270 202 220 166 188 190 200 247 220 148 114 82 225 159 160 140 192 148
12 9 5 4 3 1 359 1 1 4 6 4 359 354 350 350 355 67 79 83 67 62 99 112 271 247 249 221 198 172 175 178 165 177 216 252 211 133 147 138 200 175 209 179 186 191 169
1 1 1 0 2 1 1 0 1 1 3 5 1 0 358 3 67 101 97 60 47 19 213 214 256 233 120 300 234 181 169 163 171 185 180 208 176 197 188 198 167 188 205 218 357 169 139
352 353 355 356 360 0 360 359 359 359 360 3 5 6 9 37 88 93 53 68 61 325 300 259 241 255 259 250 229 200 164 160 181 193 203 180 224 208 193 213 228 242 228 196 356 167 186
343 346 349 353 354 356 358 358 357 356 357 357 4 8 21 50 91 94 55 67 35 344 265 297 233 223 202 236 252 198 189 185 170 178 207 189 222 210 209 212 217 228 235 178 166 149 258
338 340 344 348 351 351 351 353 354 354 352 351 355 4 10 353 17 81 67 287 2 346 306 242 173 254 213 222 266 219 200 180 191 197 199 234 246 205 222 228 213 232 209 186 145 151 210
334 336 339 344 345 345 347 346 347 349 350 343 343 350 358 7 108 11 309 325 321 15 351 170 140 177 202 187 248 201 210 218 223 219 170 222 203 206 216 225 226 238 202 158 167 185 146
331 334 338 341 341 339 340 342 342 342 343 342 332 331 341 346 297 295 321 196 192 163 260 148 139 186 162 229 283 136 184 207 294 250 274 226 251 212 213 205 220 177 110 53 124 94 250
330 337 339 340 339 337 338 338 337 337 338 337 327 314 316 321 280 307 169 237 48 162 201 161 208 175 205 220 224 193 193 191 199 204 242 305 247 238 186 202 201 147 135 202 218 202 243
332 337 340 340 340 339 338 337 335 335 334 334 328 312 299 297 305 187 176 71 202 246 36 9 46 276 226 220 230 198 179 230 222 225 269 222 242 212 197 203 203 207 188 195 219 220 223
330 335 339 341 340 339 339 337 335 336 333 333 330 314 307 325 301 186 157 178 228 354 6 15 318 222 252 243 173 44 221 234 229 203 220 241 250 284 211 209 192 188 209 208 270 199 183
329 334 339 338 339 338 338 337 335 336 335 332 331 310 286 290 290 188 93 248 280 81 71 27 196 295 329 49 77 86 202 240 261 208 212 213 264 233 242 207 215 206 159 195 220 222 240
330 335 339 340 340 339 337 337 334 336 340 336 329 306 215 224 200 185 197 233 316 109 95 239 296 309 289 284 177 202 208 274 18 319 58 324 239 256 223 197 206 208 219 221 190 211 227
327 336 341 346 344 343 340 344 335 337 345 339 325 305 176 191 170 224 206 219 197 269 111 268 262 241 235 245 246 238 216 206 80 147 304 188 300 294 246 290 334 222 219 208 206 212 228
331 337 343 346 346 347 345 347 338 340 345 348 327 273 218 198 220 265 302 270 219 184 189 289 293 289 39 259 329 343 343 85 72 358 252 22 293 306 292 260 35 197 245 235 250 173 223
342 345 347 346 347 350 349 347 343 343 341 337 322 318 220 207 251 219 280 274 264 225 212 212 281 337 306 278 232 263 254 174 152 168 257 158 225 224 263 275 169 288 206 255 281 241 223
330 334 346 352 350 352 355 350 352 349 340 342 298 284 318 289 297 335 0 281 288 311 240 173 288 237 308 265 326 282 348 359 332 130 90 251 265 235 261 279 278 267 254 239 227 264 253
324 335 341 348 349 354 354 353 355 349 357 349 3 356 344 290 296 321 256 265 264 303 22 277 290 341 13 266 253 277 19 191 231 292 238 162 270 290 278 269 257 250 261 248 245 256 265
327 338 345 353 350 354 0 353 347 356 351 28 9 344 355 299 316 338 277 336 39 11 332 80 44 357 317 337 304 276 266 266 248 194 234 175 199 29 266 278 288 259 230 224 230 227 220
328 350 359 354 352 2 350 349 353 348 9 18 17 13 4 279 307 338 340 289 277 290 245 281 312 187 298 308 310 292 262 246 237 235 217 189 163 156 250 12 265 261 341 357 270 359 326
331 350 332 339 355 351 356 346 341 3 6 3 10 26 42 272 313 288 355 319 318 308 282 274 268 272 326 337 298 290 280 313 244 231 219 208 168 262 186 216 286 305 3 36 39 266 331
310 328 334 344 359 360 349 346 359 354 1 344 342 352 303 297 236 309 303 301 305 324 329 332 1 331 318 236 257 222 232 265 294 324 18 200 206 199 109 209 215 243 340 1 269 259 314
314 339 343 358 355 359 356 3 355 348 349 336 322 324 332 272 269 314 289 314 304 343 270 319 333 328 352 223 244 232 253 257 266 239 206 216 242 218 217 235 285 272 300 319 172 271 330
311 339 354 357 6 360 1 356 353 348 342 334 310 304 267 261 280 284 284 271 276 230 191 327 331 11 320 251 240 262 224 265 277 247 205 196 196 227 242 218 242 350 339 184 314 337 110
307 336 340 345 343 348 348 348 346 345 342 326 314 317 315 284 282 291 289 289 267 263 259 267 274 295 330 296 6 350 318 321 347 290 17 268 190 204 230 319 212 304 216 301 300 298 174